Flag for Germany Weather past 2 weeks in Emden, Lower Saxony, Germany

Now
73 °F

Overcast.


Feels Like: 77 °F
Forecast: 59 / 83 °F
Wind: 2 mph from Northwest

Location: Emden-Koenigspolder

Current Time: Aug 2, 2015 at 3:23:35 PM

Latest Report: Aug 2, 2015 at 3:00 PM


Visibility: 13 mi

Pressure: 30.13 "Hg

Humidity: 46%

Dew point: 51 °F

Location of EmdenLocation

Historic Weather in Emden — Graph

°F

Emden temperature yesterday

Maximum temperature yesterday: 69 °F (at 5:00 PM)
Minimum temperature yesterday: 44 °F (at 7:00 AM)
Average temperature yesterday: 57 °F

Past Weeks' High & Low Weather Summary

 TemperatureHumidityPressure
High74 °F (Jul 22, 1:00 PM)100% (Jul 22, 5:00 AM)30.14 "Hg (Jul 22, 5:00 AM)
Low44 °F (Aug 1, 7:00 AM)44% (Aug 1, 4:00 PM)29.35 "Hg (Jul 25, 2:00 PM)
Average61 °F78%29.82 "Hg
* Reported Jul 18 2:00 PM — Aug 2 2:00 PM, Emden, Weather by CustomWeather, © 2015

Note: Actual official high and low records may vary slightly from our data, if they occured in-between our weather recording intervals... More about our weather records

Advertising

Emden weather history for previous 24 hours

 ConditionsComfort  
Time TempWeatherWind HumidityBarometerVisibility
2:00 PM
Sun, Aug 2
72 °FPassing clouds.3 mph48%30.14 "Hg9 mi
1:00 PM70 °FOvercast.3 mph49%30.14 "Hg19 mi
12:00 PM69 °FOvercast.3 mph49%30.14 "Hg19 mi
11:00 AM66 °FOvercast.3 mph54%30.13 "Hg16 mi
10:00 AM64 °FOvercast.3 mph67%30.12 "Hg11 mi
9:00 AM61 °FSunny.3 mph73%30.11 "Hg10 mi
8:00 AM58 °FSunny.3 mph77%30.10 "Hg12 mi
7:00 AM50 °FSunny.1 mph100%30.09 "Hg3 mi
6:00 AM47 °FSunny.N/A99%30.08 "Hg11 mi
4:00 AM49 °FOvercast.1 mph100%30.07 "Hg1 mi
1:00 AM51 °FPassing clouds.1 mph99%30.06 "Hg9 mi
11:00 PM
Sat, Aug 1
54 °FClear.1 mph94%30.06 "Hg9 mi
10:00 PM56 °FFog.1 mph87%30.05 "Hg3 mi
9:00 PM61 °FOvercast.3 mph71%30.03 "Hg19 mi
8:00 PM65 °FPartly sunny.3 mph66%30.02 "Hg22 mi
7:00 PM66 °FOvercast.5 mph60%30.01 "Hg10 mi
6:00 PM67 °FOvercast.5 mph55%30.01 "Hg14 mi
5:00 PM69 °FOvercast.2 mph45%30.00 "Hg25 mi
4:00 PM68 °FOvercast.1 mph44%29.99 "Hg22 mi
3:00 PM69 °FOvercast.1 mph48%30.01 "Hg17 mi
Weather by CustomWeather, © 2015

See weather overviewHow to use our weather pages